DLH426 KBOS-EDDM

Flight info

Callsign DLH426
Flight time N/A
Altitude 37000
Route LBSTA8 LBSTA DCT EBONY N381B ALLRY/M082F380 NATU BEXET/N0471F390 DCT MORAG DCT NUCHU L607 KONAN DCT KOK DCT DENOX DCT MATUG DCT MOVUM T109 HAREM/N0448F350 T104 ELMOX/N0391F270 T104 ROKIL ROKIL1B
Aircraft A388/J-SADE2E3GHIJ3J4J5LM1OP2RWXYZ/LB1D1

Departure

Time 2026-05-06 01:42
Airport Boston Logan International Airport (KBOS)

Arrival

Time N/A
Airport Munich Airport (EDDM)
Time Latitude Longitude Altitude Speed Heading
2026-05-06 01:00 42.37084 -71.01856 22 ft 0 kts 212°
2026-05-06 01:24 42.37084 -71.01855 23 ft 2 kts 212°
2026-05-06 01:24 42.37097 -71.01843 28 ft 2 kts 215°
2026-05-06 01:25 42.37110 -71.01829 28 ft 2 kts 221°
2026-05-06 01:25 42.37121 -71.01812 27 ft 2 kts 232°
2026-05-06 01:25 42.37128 -71.01792 28 ft 2 kts 251°
2026-05-06 01:25 42.37130 -71.01770 28 ft 2 kts 274°
2026-05-06 01:26 42.37125 -71.01748 29 ft 2 kts 294°
2026-05-06 01:26 42.37121 -71.01740 29 ft 0 kts 298°
2026-05-06 01:37 42.37122 -71.01741 29 ft 0 kts 298°
2026-05-06 01:37 42.37138 -71.01781 28 ft 7 kts 300°
2026-05-06 01:38 42.37159 -71.01830 26 ft 0 kts 302°
2026-05-06 01:39 42.37162 -71.01837 27 ft 0 kts 302°
2026-05-06 01:40 42.37168 -71.01848 26 ft 5 kts 302°
2026-05-06 01:40 42.37196 -71.01902 26 ft 8 kts 323°
2026-05-06 01:40 42.37261 -71.01908 25 ft 13 kts 13°
2026-05-06 01:40 42.37373 -71.01844 24 ft 21 kts 47°
2026-05-06 01:41 42.37388 -71.01814 23 ft 4 kts 65°
2026-05-06 01:41 42.37393 -71.01768 21 ft 7 kts 98°
2026-05-06 01:41 42.37368 -71.01705 24 ft 9 kts 138°
2026-05-06 01:41 42.37300 -71.01619 23 ft 30 kts 136°
2026-05-06 01:42 42.36940 -71.01165 18 ft 108 kts 136°
2026-05-06 01:42 42.36286 -71.00270 26 ft 156 kts 137°
2026-05-06 01:42 42.35530 -70.99113 366 ft 169 kts 135°
2026-05-06 01:42 42.34748 -70.97817 669 ft 182 kts 135°
2026-05-06 01:43 42.34038 -70.96331 1060 ft 195 kts 122°
2026-05-06 01:43 42.33740 -70.94441 1513 ft 219 kts 104°
2026-05-06 01:43 42.33719 -70.92180 1767 ft 257 kts 97°
2026-05-06 01:43 42.33893 -70.89593 2049 ft 291 kts 88°
2026-05-06 01:44 42.34294 -70.86800 2443 ft 316 kts 80°
2026-05-06 01:44 42.34916 -70.83837 2842 ft 333 kts 79°
2026-05-06 01:44 42.35081 -70.80821 3169 ft 312 kts 99°
2026-05-06 01:44 42.34957 -70.77921 3505 ft 305 kts 86°
2026-05-06 01:45 42.35606 -70.75168 3850 ft 309 kts 59°
2026-05-06 01:45 42.37017 -70.73005 4200 ft 307 kts 32°
2026-05-06 01:45 42.38907 -70.71821 4563 ft 295 kts
2026-05-06 01:45 42.40919 -70.71491 5273 ft 290 kts 357°
2026-05-06 01:46 42.42926 -70.71203 6103 ft 293 kts
2026-05-06 01:46 42.44947 -70.70718 6872 ft 296 kts
2026-05-06 01:46 42.47015 -70.70256 7602 ft 300 kts
2026-05-06 01:46 42.49063 -70.69699 8339 ft 304 kts
2026-05-06 01:47 42.51155 -70.69076 9142 ft 307 kts
2026-05-06 01:47 42.53280 -70.68428 9900 ft 310 kts
2026-05-06 01:47 42.54719 -70.67990 10246 ft 318 kts
2026-05-06 01:47 42.56983 -70.67309 10440 ft 339 kts
2026-05-06 01:48 42.59411 -70.66581 10658 ft 357 kts
2026-05-06 01:48 42.61892 -70.65831 11203 ft 362 kts
2026-05-06 01:48 42.64363 -70.65082 11827 ft 366 kts
2026-05-06 01:48 42.66823 -70.64336 12446 ft 369 kts
2026-05-06 01:49 42.69388 -70.63687 13049 ft 371 kts
2026-05-06 01:49 42.71950 -70.63133 13659 ft 374 kts
2026-05-06 01:49 42.74708 -70.62528 14254 ft 377 kts
2026-05-06 01:49 42.77338 -70.61928 14778 ft 382 kts
2026-05-06 01:50 42.79841 -70.60642 15295 ft 391 kts 27°
2026-05-06 01:50 42.81961 -70.58392 15814 ft 398 kts 46°
2026-05-06 01:50 42.83769 -70.55558 16308 ft 402 kts 49°
2026-05-06 01:50 42.85606 -70.52665 16816 ft 405 kts 48°
2026-05-06 01:51 42.87462 -70.49766 17345 ft 408 kts 48°
2026-05-06 01:51 42.89366 -70.46801 17857 ft 412 kts 48°
2026-05-06 01:51 42.91237 -70.43890 18326 ft 415 kts 48°
2026-05-06 01:51 42.93148 -70.40915 18779 ft 417 kts 48°
2026-05-06 01:52 42.95086 -70.37891 19269 ft 419 kts 48°
2026-05-06 01:52 42.96984 -70.34925 19726 ft 421 kts 47°
2026-05-06 01:52 42.98913 -70.31908 20162 ft 423 kts 47°
2026-05-06 01:52 43.00853 -70.28870 20613 ft 425 kts 47°
2026-05-06 01:53 43.02799 -70.25819 21052 ft 427 kts 47°
2026-05-06 01:53 43.04761 -70.22739 21498 ft 429 kts 47°